| time (UTC) | temp C | wind direction | speed KPH | gust KPH | rain 1hr cm | rain 24hr cm | rain mn cm | humidity % | barometer mb |
| 20260510215850 | 21 | 338 | 6.4 | 6.4 | 0.00 | 0.00 | 0.00 | 77 | |
| 20260510215839 | 21 | 225 | 8.0 | 8.0 | 0.00 | 0.00 | 0.00 | 77 | |
| 20260510214839 | 21 | 0 | 8.0 | 8.0 | 0.00 | 0.00 | 0.00 | 76 | |
| 20260510213839 | 21 | 293 | 17.7 | 17.7 | 0.00 | 0.00 | 0.00 | 69 | |
| 20260510212839 | 22 | 293 | 9.7 | 9.7 | 0.00 | 0.00 | 0.00 | 64 | |
| 20260510211839 | 23 | 293 | 9.7 | 9.7 | 0.00 | 0.00 | 0.00 | 61 | |
| 20260510210839 | 23 | 68 | 4.8 | 4.8 | 0.00 | 0.00 | 0.00 | 60 | |
| 20260510205839 | 23 | 0 | 0.0 | 0.0 | 0.00 | 0.00 | 0.00 | 61 | |
| 20260510204840 | 23 | 338 | 8.0 | 8.0 | 0.00 | 0.00 | 0.00 | 59 | |
| 20260510203840 | 23 | 0 | 6.4 | 6.4 | 0.00 | 0.00 | 0.00 | 59 | |
| 20260510202852 | 24 | 315 | 6.4 | 6.4 | 0.00 | 0.00 | 0.00 | 58 | |
| 20260510202840 | 24 | 338 | 4.8 | 4.8 | 0.00 | 0.00 | 0.00 | 58 | |
| 20260510201840 | 25 | 338 | 9.7 | 9.7 | 0.00 | 0.00 | 0.00 | 55 | |
| 20260510200854 | 25 | 338 | 8.0 | 8.0 | 0.00 | 0.00 | 0.00 | 57 | |
| 20260510200840 | 25 | 338 | 6.4 | 6.4 | 0.00 | 0.00 | 0.00 | 57 | |
| 20260510195840 | 24 | 338 | 11.3 | 11.3 | 0.00 | 0.00 | 0.00 | 57 | |
| 20260510194840 | 25 | 315 | 14.5 | 14.5 | 0.00 | 0.00 | 0.00 | 56 | |
| 20260510193852 | 25 | 315 | 6.4 | 6.4 | 0.00 | 0.00 | 0.00 | 54 | |
| 20260510193840 | 25 | 338 | 6.4 | 6.4 | 0.00 | 0.00 | 0.00 | 54 | |
| 20260510192840 | 24 | 270 | 4.8 | 4.8 | 0.00 | 0.00 | 0.00 | 55 | |
| 20260510191839 | 25 | 338 | 9.7 | 9.7 | 0.00 | 0.00 | 0.00 | 53 | |
| 20260510190840 | 25 | 270 | 12.9 | 12.9 | 0.00 | 0.00 | 0.00 | 46 | |
| 20260510185839 | 25 | 203 | 12.9 | 12.9 | 0.00 | 0.00 | 0.00 | 47 | |
| 20260510184851 | 25 | 225 | 6.4 | 6.4 | 0.00 | 0.00 | 0.00 | 49 | |
| 20260510184839 | 25 | 225 | 4.8 | 4.8 | 0.00 | 0.00 | 0.00 | 49 | |
| 20260510183839 | 26 | 248 | 11.3 | 11.3 | 0.00 | 0.00 | 0.00 | 46 | |
| 20260510182839 | 26 | 203 | 6.4 | 6.4 | 0.00 | 0.00 | 0.00 | 46 | |
| 20260510181839 | 26 | 203 | 14.5 | 14.5 | 0.00 | 0.00 | 0.00 | 48 | |
| 20260510180851 | 26 | 225 | 6.4 | 6.4 | 0.00 | 0.00 | 0.00 | 46 | |
| 20260510180839 | 26 | 225 | 9.7 | 9.7 | 0.00 | 0.00 | 0.00 | 46 | |
| 20260510175839 | 26 | 270 | 16.1 | 16.1 | 0.00 | 0.00 | 0.00 | 47 | |
| 20260510174851 | 27 | 203 | 12.9 | 12.9 | 0.00 | 0.00 | 0.00 | 47 | |
| 20260510174839 | 27 | 203 | 14.5 | 14.5 | 0.00 | 0.00 | 0.00 | 47 | |
| 20260510173851 | 26 | 203 | 16.1 | 16.1 | 0.00 | 0.00 | 0.00 | 45 | |
| 20260510173839 | 26 | 158 | 17.7 | 17.7 | 0.00 | 0.00 | 0.00 | 45 | |
| 20260510172839 | 26 | 203 | 11.3 | 11.3 | 0.00 | 0.00 | 0.00 | 45 | |
| 20260510171839 | 25 | 225 | 12.9 | 12.9 | 0.00 | 0.00 | 0.00 | 48 | |
| 20260510170839 | 26 | 158 | 9.7 | 9.7 | 0.00 | 0.00 | 0.00 | 51 | |
| 20260510165850 | 26 | 270 | 8.0 | 8.0 | 0.00 | 0.00 | 0.00 | 50 | |
| 20260510165839 | 26 | 270 | 6.4 | 6.4 | 0.00 | 0.00 | 0.00 | 49 | |
| 20260510164839 | 26 | 248 | 14.5 | 14.5 | 0.00 | 0.00 | 0.00 | 50 | |
| 20260510163839 | 25 | 158 | 8.0 | 8.0 | 0.00 | 0.00 | 0.00 | 54 | |
| 20260510162839 | 25 | 203 | 14.5 | 14.5 | 0.00 | 0.00 | 0.00 | 54 | |
| 20260510161839 | 25 | 225 | 8.0 | 8.0 | 0.00 | 0.00 | 0.00 | 55 | |
| 20260510160839 | 25 | 270 | 8.0 | 8.0 | 0.00 | 0.00 | 0.00 | 53 | |
| 20260510155915 | 25 | 203 | 8.0 | 8.0 | 0.00 | 0.00 | 0.00 | 56 | |
| 20260510155839 | 25 | 203 | 8.0 | 8.0 | 0.00 | 0.00 | 0.00 | 56 | |
| 20260510154839 | 25 | 270 | 6.4 | 6.4 | 0.00 | 0.00 | 0.00 | 56 | |
| 20260510153839 | 24 | 225 | 3.2 | 3.2 | 0.00 | 0.00 | 0.00 | 58 | |
| 20260510152839 | 23 | 68 | 3.2 | 3.2 | 0.00 | 0.00 | 0.00 | 61 | |
| 20260510151850 | 22 | 293 | 6.4 | 6.4 | 0.00 | 0.00 | 0.00 | 61 | |
| 20260510151839 | 22 | 293 | 8.0 | 8.0 | 0.00 | 0.00 | 0.00 | 60 | |
| 20260510150839 | 23 | 338 | 4.8 | 4.8 | 0.00 | 0.00 | 0.00 | 60 | |
| 20260510145851 | 22 | 23 | 4.8 | 4.8 | 0.00 | 0.00 | 0.00 | 62 | |
| 20260510145839 | 22 | 338 | 8.0 | 8.0 | 0.00 | 0.00 | 0.00 | 62 | |
| 20260510145043 | 22 | 248 | 9.7 | 9.7 | 0.00 | 0.00 | 0.00 | 66 | |
| 20260510144839 | 22 | 248 | 9.7 | 9.7 | 0.00 | 0.00 | 0.00 | 66 | |
| 20260510143850 | 21 | 248 | 8.0 | 8.0 | 0.00 | 0.00 | 0.00 | 66 | |
| 20260510143839 | 21 | 248 | 9.7 | 9.7 | 0.00 | 0.00 | 0.00 | 66 | |
| 20260510142840 | 21 | 203 | 9.7 | 9.7 | 0.00 | 0.00 | 0.00 | 68 | |
| 20260510142519 | 18 | 293 | 4.8 | 4.8 | 0.00 | 0.00 | 0.00 | 78 | |
| 20260510141840 | 20 | 203 | 6.4 | 6.4 | 0.00 | 0.00 | 0.00 | 73 | |
| 20260510140851 | 21 | 293 | 6.4 | 6.4 | 0.00 | 0.00 | 0.00 | 72 | |
| 20260510140840 | 20 | 293 | 6.4 | 6.4 | 0.00 | 0.00 | 0.00 | 72 | |
| 20260510135840 | 19 | 293 | 6.4 | 6.4 | 0.00 | 0.00 | 0.00 | 76 | |
| 20260510134851 | 18 | 293 | 4.8 | 4.8 | 0.00 | 0.00 | 0.00 | 78 | |
| 20260510134840 | 18 | 315 | 3.2 | 3.2 | 0.00 | 0.00 | 0.00 | 78 | |
| 20260510133840 | 18 | 203 | 4.8 | 4.8 | 0.00 | 0.00 | 0.00 | 79 | |
| 20260510132851 | 17 | 180 | 6.4 | 6.4 | 0.00 | 0.00 | 0.00 | 80 | |
| 20260510132840 | 17 | 180 | 4.8 | 4.8 | 0.00 | 0.00 | 0.00 | 80 | |
| 20260510131840 | 17 | 45 | 4.8 | 4.8 | 0.00 | 0.00 | 0.00 | 80 | |
| 20260510130839 | 17 | 23 | 4.8 | 4.8 | 0.00 | 0.00 | 0.00 | 83 | |
| 20260510125839 | 15 | 270 | 3.2 | 3.2 | 0.00 | 0.00 | 0.00 | 87 | |
| 20260510124839 | 16 | 315 | 6.4 | 6.4 | 0.00 | 0.00 | 0.00 | 84 | |
| 20260510123936 | 15 | 248 | 0.0 | 0.0 | 0.00 | 0.00 | 0.00 | 87 | |
| 20260510123851 | 15 | 248 | 0.0 | 0.0 | 0.00 | 0.00 | 0.00 | 87 | |
| 20260510123839 | 15 | 315 | 1.6 | 1.6 | 0.00 | 0.00 | 0.00 | 87 | |
| 20260510122839 | 14 | 90 | 4.8 | 4.8 | 0.00 | 0.00 | 0.00 | 91 | |
| 20260510121839 | 12 | 293 | 0.0 | 0.0 | 0.00 | 0.00 | 0.00 | 95 | |
| 20260510120839 | 12 | 45 | 4.8 | 4.8 | 0.00 | 0.00 | 0.00 | 96 | |
| 20260510115839 | 12 | 0 | 4.8 | 4.8 | 0.00 | 0.00 | 0.00 | 98 | |
| 20260510115124 | 11 | 23 | 8.0 | 8.0 | 0.00 | 0.00 | 0.00 | 99 | |
| 20260510114839 | 11 | 23 | 8.0 | 8.0 | 0.00 | 0.00 | 0.00 | 99 | |
| 20260510113839 | 11 | 338 | 6.4 | 6.4 | 0.00 | 0.00 | 0.00 | 99 | |
| 20260510112839 | 11 | 338 | 4.8 | 4.8 | 0.00 | 0.00 | 0.00 | 99 | |
| 20260510111839 | 11 | 338 | 6.4 | 6.4 | 0.00 | 0.00 | 0.00 | 99 | |
| 20260510110852 | 11 | 315 | 4.8 | 4.8 | 0.00 | 0.00 | 0.00 | 99 | |
| 20260510110839 | 11 | 315 | 6.4 | 6.4 | 0.00 | 0.00 | 0.00 | 99 | |
| 20260510105839 | 11 | 68 | 3.2 | 3.2 | 0.00 | 0.00 | 0.00 | 99 | |
| 20260510104839 | 11 | 90 | 0.0 | 0.0 | 0.00 | 0.00 | 0.00 | 99 | |
| 20260510103839 | 10 | 338 | 3.2 | 3.2 | 0.00 | 0.00 | 0.00 | 99 | |
| 20260510102839 | 10 | 0 | 4.8 | 4.8 | 0.00 | 0.00 | 0.00 | 99 | |
| 20260510101852 | 10 | 23 | 3.2 | 3.2 | 0.00 | 0.00 | 0.00 | 99 | |
| 20260510101839 | 10 | 68 | 3.2 | 3.2 | 0.00 | 0.00 | 0.00 | 99 | |
| 20260510100839 | 10 | 338 | 3.2 | 3.2 | 0.00 | 0.00 | 0.00 | 99 | |
| 20260510095839 | 10 | 45 | 0.0 | 0.0 | 0.00 | 0.00 | 0.00 | 99 | |
| 20260510094839 | 10 | 338 | 6.4 | 6.4 | 0.00 | 0.00 | 0.00 | 99 | |
| 20260510093839 | 10 | 68 | 0.0 | 0.0 | 0.00 | 0.00 | 0.00 | 99 | |
| 20260510092839 | 9 | 338 | 4.8 | 4.8 | 0.00 | 0.00 | 0.00 | 99 | |
| 20260510091839 | 9 | 315 | 4.8 | 4.8 | 0.00 | 0.00 | 0.00 | 99 | |
| 20260510090851 | 8 | 293 | 4.8 | 4.8 | 0.00 | 0.00 | 0.00 | 99 | |
| 20260510090839 | 8 | 315 | 0.0 | 0.0 | 0.00 | 0.00 | 0.00 | 99 | |
| 20260510085839 | 9 | 0 | 0.0 | 0.0 | 0.00 | 0.00 | 0.00 | 99 | |
| 20260510084850 | 9 | 315 | 3.2 | 3.2 | 0.00 | 0.00 | 0.00 | 99 | |
| 20260510084839 | 9 | 315 | 0.0 | 0.0 | 0.00 | 0.00 | 0.00 | 99 | |
| 20260510083839 | 9 | 338 | 1.6 | 1.6 | 0.00 | 0.00 | 0.00 | 99 | |
| 20260510082839 | 9 | 23 | 4.8 | 4.8 | 0.00 | 0.00 | 0.00 | 99 | |
| 20260510081840 | 9 | 315 | 3.2 | 3.2 | 0.00 | 0.00 | 0.00 | 99 | |
| 20260510080840 | 9 | 293 | 3.2 | 3.2 | 0.00 | 0.00 | 0.00 | 99 | |
| 20260510075840 | 9 | 0 | 3.2 | 3.2 | 0.00 | 0.00 | 0.00 | 99 | |
| 20260510074840 | 9 | 315 | 6.4 | 6.4 | 0.00 | 0.00 | 0.00 | 99 | |
| 20260510073840 | 9 | 270 | 0.0 | 0.0 | 0.00 | 0.00 | 0.00 | 99 | |
| 20260510072840 | 10 | 158 | 0.0 | 0.0 | 0.00 | 0.00 | 0.00 | 99 | |
| 20260510071840 | 10 | 158 | 0.0 | 0.0 | 0.00 | 0.00 | 0.00 | 99 | |
| 20260510070840 | 9 | 203 | 0.0 | 0.0 | 0.00 | 0.00 | 0.00 | 99 | |
| 20260510070030 | 10 | 180 | 0.0 | 0.0 | 0.00 | 0.00 | 0.00 | 99 | |
| 20260510065839 | 10 | 180 | 0.0 | 0.0 | 0.00 | 0.00 | 0.00 | 99 | |
| 20260510064931 | 10 | 45 | 3.2 | 3.2 | 0.00 | 0.00 | 0.00 | 99 | |
| 20260510064851 | 10 | 45 | 3.2 | 3.2 | 0.00 | 0.00 | 0.00 | 99 | |
| 20260510064839 | 10 | 23 | 3.2 | 3.2 | 0.00 | 0.00 | 0.00 | 99 | |
| 20260510063947 | 10 | 23 | 3.2 | 3.2 | 0.00 | 0.00 | 0.00 | 98 | |
| 20260510063839 | 10 | 23 | 3.2 | 3.2 | 0.00 | 0.00 | 0.00 | 98 | |
| 20260510062949 | 9 | 90 | 0.0 | 0.0 | 0.00 | 0.00 | 0.00 | 98 | |
| 20260510062839 | 9 | 90 | 0.0 | 0.0 | 0.00 | 0.00 | 0.00 | 98 | |
| 20260510061923 | 10 | 270 | 0.0 | 0.0 | 0.00 | 0.00 | 0.00 | 98 | |
| 20260510061839 | 10 | 270 | 0.0 | 0.0 | 0.00 | 0.00 | 0.00 | 98 | |
| 20260510061003 | 10 | 45 | 0.0 | 0.0 | 0.00 | 0.00 | 0.00 | 98 | |
| 20260510060839 | 10 | 45 | 0.0 | 0.0 | 0.00 | 0.00 | 0.00 | 98 | |
| 20260510055951 | 10 | 23 | 0.0 | 0.0 | 0.00 | 0.00 | 0.00 | 98 | |
| 20260510055852 | 10 | 23 | 0.0 | 0.0 | 0.00 | 0.00 | 0.00 | 98 | |
| 20260510055839 | 10 | 45 | 0.0 | 0.0 | 0.00 | 0.00 | 0.00 | 98 | |
| 20260510055120 | 10 | 45 | 0.0 | 0.0 | 0.00 | 0.00 | 0.00 | 98 | |
| 20260510054839 | 10 | 45 | 0.0 | 0.0 | 0.00 | 0.00 | 0.00 | 98 | |
| 20260510054001 | 10 | 23 | 0.0 | 0.0 | 0.00 | 0.00 | 0.00 | 97 | |
| 20260510053839 | 10 | 23 | 0.0 | 0.0 | 0.00 | 0.00 | 0.00 | 97 | |
| 20260510052925 | 10 | 158 | 0.0 | 0.0 | 0.00 | 0.00 | 0.00 | 97 | |
| 20260510052840 | 10 | 158 | 0.0 | 0.0 | 0.00 | 0.00 | 0.00 | 97 | |
| 20260510051839 | 10 | 0 | 3.2 | 3.2 | 0.00 | 0.00 | 0.00 | 97 | |
| 20260510050839 | 10 | 90 | 0.0 | 0.0 | 0.00 | 0.00 | 0.00 | 97 | |
| 20260510045839 | 10 | 45 | 3.2 | 3.2 | 0.00 | 0.00 | 0.00 | 97 | |
| 20260510044839 | 10 | 338 | 3.2 | 3.2 | 0.00 | 0.00 | 0.00 | 97 | |
| 20260510043839 | 11 | 0 | 0.0 | 0.0 | 0.00 | 0.00 | 0.00 | 97 | |
| 20260510042850 | 11 | 45 | 3.2 | 3.2 | 0.00 | 0.00 | 0.00 | 96 | |
| 20260510042839 | 11 | 23 | 4.8 | 4.8 | 0.00 | 0.00 | 0.00 | 96 | |
| 20260510041839 | 11 | 293 | 0.0 | 0.0 | 0.00 | 0.00 | 0.00 | 96 | |
| 20260510040839 | 11 | 338 | 0.0 | 0.0 | 0.00 | 0.00 | 0.00 | 96 | |
| 20260510040030 | 11 | 23 | 3.2 | 3.2 | 0.00 | 0.00 | 0.00 | 96 | |
| 20260510035839 | 11 | 23 | 3.2 | 3.2 | 0.00 | 0.00 | 0.00 | 96 | |
| 20260510034839 | 11 | 338 | 4.8 | 4.8 | 0.00 | 0.00 | 0.00 | 95 | |
| 20260510033839 | 11 | 68 | 0.0 | 0.0 | 0.00 | 0.00 | 0.00 | 94 | |
| 20260510032839 | 11 | 180 | 0.0 | 0.0 | 0.00 | 0.00 | 0.00 | 93 | |
| 20260510031839 | 12 | 135 | 1.6 | 1.6 | 0.00 | 0.00 | 0.00 | 93 | |
| 20260510030839 | 12 | 68 | 6.4 | 6.4 | 0.00 | 0.00 | 0.00 | 93 | |
| 20260510025839 | 12 | 113 | 3.2 | 3.2 | 0.00 | 0.00 | 0.00 | 92 | |
| 20260510024839 | 12 | 68 | 6.4 | 6.4 | 0.00 | 0.00 | 0.00 | 91 | |
| 20260510023839 | 12 | 68 | 4.8 | 4.8 | 0.00 | 0.00 | 0.00 | 91 | |
| 20260510022839 | 12 | 90 | 4.8 | 4.8 | 0.00 | 0.00 | 0.00 | 90 | |
| 20260510021840 | 12 | 90 | 4.8 | 4.8 | 0.00 | 0.00 | 0.00 | 90 | |
| 20260510020851 | 12 | 23 | 4.8 | 4.8 | 0.00 | 0.00 | 0.00 | 90 | |
| 20260510020840 | 12 | 23 | 6.4 | 6.4 | 0.00 | 0.00 | 0.00 | 90 | |
| 20260510015840 | 12 | 90 | 8.0 | 8.0 | 0.00 | 0.00 | 0.00 | 90 | |
| 20260510014840 | 12 | 90 | 4.8 | 4.8 | 0.00 | 0.00 | 0.00 | 89 | |
| 20260510013840 | 12 | 90 | 3.2 | 3.2 | 0.00 | 0.00 | 0.00 | 88 | |
| 20260510012840 | 13 | 90 | 6.4 | 6.4 | 0.00 | 0.00 | 0.00 | 88 | |
| 20260510011915 | 13 | 90 | 4.8 | 4.8 | 0.00 | 0.00 | 0.00 | 87 | |
| 20260510011840 | 13 | 90 | 4.8 | 4.8 | 0.00 | 0.00 | 0.00 | 87 | |
| 20260510010840 | 13 | 68 | 6.4 | 6.4 | 0.00 | 0.00 | 0.00 | 87 | |
| 20260510005839 | 13 | 113 | 3.2 | 3.2 | 0.00 | 0.00 | 0.00 | 86 | |
| 20260510004839 | 13 | 45 | 8.0 | 8.0 | 0.00 | 0.00 | 0.00 | 86 | |
| 20260510003839 | 13 | 45 | 4.8 | 4.8 | 0.00 | 0.00 | 0.00 | 86 | |
| 20260510002839 | 13 | 68 | 6.4 | 6.4 | 0.00 | 0.00 | 0.00 | 85 | |
| 20260510001839 | 13 | 45 | 3.2 | 3.2 | 0.00 | 0.00 | 0.00 | 84 | |
| 20260510000839 | 14 | 68 | 3.2 | 3.2 | 0.00 | 0.00 | 0.00 | 83 | |
| 20260509235839 | 15 | 45 | 0.0 | 0.0 | 0.00 | 0.00 | 0.00 | 82 | |
| 20260509234839 | 15 | 45 | 3.2 | 3.2 | 0.00 | 0.00 | 0.00 | 80 | |
| 20260509233958 | 16 | 45 | 3.2 | 3.2 | 0.00 | 0.00 | 0.00 | 79 | |
| 20260509233839 | 16 | 45 | 3.2 | 3.2 | 0.00 | 0.00 | 0.00 | 79 | |
| 20260509232852 | 16 | 90 | 4.8 | 4.8 | 0.00 | 0.00 | 0.00 | 78 | |
| 20260509232839 | 16 | 90 | 3.2 | 3.2 | 0.00 | 0.00 | 0.00 | 78 | |
| 20260509231839 | 16 | 0 | 3.2 | 3.2 | 0.00 | 0.00 | 0.00 | 77 | |
| 20260509230839 | 17 | 45 | 6.4 | 6.4 | 0.00 | 0.00 | 0.00 | 76 | |
| 20260509230122 | 16 | 113 | 9.7 | 9.7 | 0.00 | 0.00 | 0.00 | 76 | |
| 20260509225839 | 16 | 113 | 9.7 | 9.7 | 0.00 | 0.00 | 0.00 | 76 | |
| 20260509225103 | 16 | 45 | 6.4 | 6.4 | 0.00 | 0.00 | 0.00 | 78 | |
| 20260509224839 | 16 | 45 | 6.4 | 6.4 | 0.00 | 0.00 | 0.00 | 78 | |
| 20260509224052 | 16 | 68 | 4.8 | 4.8 | 0.00 | 0.00 | 0.00 | 77 | |
| 20260509223839 | 16 | 68 | 4.8 | 4.8 | 0.00 | 0.00 | 0.00 | 77 | |
| 20260509222839 | 16 | 0 | 8.0 | 8.0 | 0.00 | 0.00 | 0.00 | 76 | |
| 20260509222037 | 16 | 23 | 9.7 | 9.7 | 0.00 | 0.00 | 0.00 | 77 | |
| 20260509221850 | 16 | 23 | 9.7 | 9.7 | 0.00 | 0.00 | 0.00 | 77 | |
| 20260509221839 | 16 | 338 | 8.0 | 8.0 | 0.00 | 0.00 | 0.00 | 77 | |
| 20260509220839 | 16 | 0 | 6.4 | 6.4 | 0.00 | 0.00 | 0.00 | 77 |